Christchurch, New Zealand

8:55 PM NZST on July 24, 2017 (GMT +1200)
Christchurch International

Weather History for NZCH - April, 2013

Change the Weather History Date:

Tuesday, April 23, 2013

  Actual Average Record
Temperature  
Mean Temperature 55 °F -  
Max Temperature 64 °F 57 °F 77 °F (2006)
Min Temperature 46 °F 39 °F 33 °F (2001)
Degree Days  
Heating Degree Days 10    
Growing Degree Days 5 (Base 50)    
Moisture  
Dew Point 51 °F    
Average Humidity 91    
Maximum Humidity 100    
Minimum Humidity 68    
Precipitation  
Precipitation 0.00 in - - ()
Sea Level Pressure  
Sea Level Pressure 29.56 in    
Wind  
Wind Speed 5 mph ()    
Max Wind Speed 12 mph    
Max Gust Speed -    
Visibility 4.9 miles    
Events Fog    
Averages and records for this station are not official NWS values.
T = Trace of Precipitation, MM = Missing Value Source: Averaged Metar Reports

Daily Weather History Graph

Daily Weather History Graph

Search for Another Location

Airport or City:

Trip Planner

Search our weather history database for the weather conditions in past years. The results will help you decide how hot, cold, wet, or windy it might be!

Date:

Astronomy

Apr. 23, 2013 Rise Set
Actual Time 7:11 AM NZST 5:44 PM NZST
Civil Twilight 6:42 AM NZST 6:13 PM NZST
Nautical Twilight 6:08 AM NZST 6:46 PM NZST
Astronomical Twilight 5:35 AM NZST 7:19 PM NZST
Moon 4:00 PM NZST (4/23) 3:48 AM NZST (4/23)
Length of Visible Light 11h 31m
Length of Day
10h 32m
Waxing Gibbous, 90% of the Moon is Illuminated
Apr 23
Waxing Gibbous
Apr 26
Full
May 2
Last Quarter
May 10
New
May 18
First Quarter

Hourly Weather History & Observations

Time (NZST) Temp. Dew Point Humidity Pressure Visibility Wind Dir Wind Speed Gust Speed Precip Events Conditions
12:00 AM 53.6 °F 53.6 °F 100% 29.56 in 3.1 mi West 3.5 mph - N/A   Overcast
12:20 AM 53.6 °F 51.8 °F 94% 29.56 in 3.1 mi SW 4.6 mph - N/A   Overcast
12:40 AM 53.6 °F 53.6 °F 100% 29.56 in 6.2 mi WNW 3.5 mph - N/A   Overcast
1:00 AM 53.6 °F 53.6 °F 100% 29.56 in 6.2 mi West 3.5 mph - N/A   Overcast
1:30 AM 51.8 °F 51.8 °F 100% 29.56 in 6.2 mi WSW 4.6 mph - N/A   Mostly Cloudy
2:00 AM 51.8 °F 50.0 °F 94% 29.56 in 0.4 mi West 4.6 mph - N/A Fog Fog
2:10 AM 51.8 °F 51.8 °F 100% 29.56 in 0.2 mi WNW 5.8 mph - N/A Fog Fog
3:00 AM 50.0 °F 50.0 °F 100% 29.56 in 0.2 mi West 3.5 mph - N/A Fog Fog
4:00 AM 51.8 °F 51.8 °F 100% 29.56 in 0.2 mi West 3.5 mph - N/A Fog Fog
5:00 AM 51.8 °F 50.0 °F 94% 29.56 in - WSW 5.8 mph - N/A Fog Fog
6:00 AM 50.0 °F 50.0 °F 100% 29.59 in 0.5 mi West 4.6 mph - N/A Fog Fog
6:40 AM 51.8 °F 51.8 °F 100% 29.59 in 3.7 mi SW 6.9 mph - N/A   Light Drizzle
7:00 AM 51.8 °F 51.8 °F 100% 29.59 in 3.7 mi WSW 5.8 mph - N/A   Light Drizzle
7:25 AM 51.8 °F 51.8 °F 100% 29.59 in 6.2 mi SW 5.8 mph - N/A   Light Drizzle
8:00 AM 51.8 °F 51.8 °F 100% 29.59 in 6.2 mi WSW 5.8 mph - N/A   Light Drizzle
9:00 AM 53.6 °F 51.8 °F 94% 29.59 in 6.2 mi WSW 6.9 mph - N/A   Overcast
10:00 AM 53.6 °F 51.8 °F 94% 29.59 in 6.2 mi WSW 5.8 mph - N/A   Overcast
11:00 AM 55.4 °F 53.6 °F 94% 29.59 in 6.2 mi SW 6.9 mph - N/A   Overcast
11:40 AM 59.0 °F 53.6 °F 82% 29.59 in 6.2 mi SW 6.9 mph - N/A   Mostly Cloudy
12:00 PM 59.0 °F 55.4 °F 88% 29.56 in 6.2 mi SSW 5.8 mph - N/A   Mostly Cloudy
12:30 PM 60.8 °F 53.6 °F 77% 29.56 in 6.2 mi South 11.5 mph - N/A   Scattered Clouds
1:00 PM 62.6 °F 53.6 °F 72% 29.53 in 6.2 mi SSW 8.1 mph - N/A   Scattered Clouds
2:00 PM 64.4 °F 53.6 °F 68% 29.53 in 6.2 mi South 8.1 mph - N/A   Scattered Clouds
3:00 PM 62.6 °F 53.6 °F 72% 29.53 in 6.2 mi SSW 10.4 mph - N/A   Scattered Clouds
4:00 PM 62.6 °F 51.8 °F 68% 29.53 in 6.2 mi South 8.1 mph - N/A   Scattered Clouds
5:00 PM 60.8 °F 51.8 °F 72% 29.53 in 6.2 mi SSW 6.9 mph - N/A   Partly Cloudy
6:00 PM 55.4 °F 50.0 °F 82% 29.53 in 6.2 mi South 3.5 mph - N/A   Partly Cloudy
7:00 PM 53.6 °F 50.0 °F 88% 29.53 in 6.2 mi SSW 1.2 mph - N/A   Partly Cloudy
8:00 PM 51.8 °F 50.0 °F 94% 29.56 in 6.2 mi WNW 4.6 mph - N/A   Partly Cloudy
9:00 PM 48.2 °F 46.4 °F 93% 29.53 in 6.2 mi WNW 2.3 mph - N/A Fog Shallow Fog
10:00 PM 46.4 °F 46.4 °F 100% 29.53 in 6.2 mi NW 2.3 mph - N/A Fog Shallow Fog
11:00 PM 46.4 °F 44.6 °F 93% 29.53 in 6.2 mi SSE 1.2 mph - N/A Fog Shallow Fog